Location: Syracuse
(43.0480°N, 76.1480°W)
Time: 08:15:23
(UTC-04:00)

Daily predictions for brighter satellites

Satellite Brightness Start Highest point End
(mag) Time Altitude Azimuth Time Altitude Azimuth Time Altitude Azimuth
SL-19 R/B 4.4 19:13:00 10° SSE 19:18:35 77° ENE 19:24:31 10° NNW
Cosmos 1452 Rocket 4.4 19:15:36 10° N 19:20:14 30° ENE 19:24:50 10° ESE
Cosmos 2219 Rocket 3.3 19:15:51 10° SW 19:21:18 50° WNW 19:26:48 10° NNE
Helios 1A 3.9 19:18:07 10° SE 19:21:40 28° ENE 19:25:15 10° N
CZ-2C R/B 4.2 19:18:59 10° SSW 19:23:34 37° W 19:28:04 10° NNW
NOSS 0 Rocket 4.4 19:18:26 10° SW 19:24:33 67° WNW 19:30:45 10° NNE
DMSP B5D1-3 4.5 19:19:36 10° NNE 19:24:43 76° ESE 19:29:48 10° S
Cosmos 2278 Rocket 2.9 19:20:06 10° NNW 19:25:40 60° WSW 19:31:12 10° S
COSMO-SKYMED 1 2.8 19:21:26 10° N 19:25:49 79° WNW 19:30:08 10° SSW
Cosmos 1441 Rocket 3.8 19:22:25 10° NNW 19:26:07 62° W 19:29:49 10° S
NOSS 3-2 (A) 3.7 19:21:02 10° S 19:26:49 50° ESE 19:33:07 10° NE
Meteor 1-22 Rocket 4.1 19:21:57 10° S 19:27:11 57° E 19:32:22 10° NNE
Cosmos 1378 3.3 19:24:51 10° N 19:28:30 48° ENE 19:32:06 10° SSE
Cosmos 2297 3.7 19:24:52 10° NNW 19:30:35 76° ENE 19:36:12 10° SSE
Meteor 1-28 Rocket 3.3 19:27:42 10° NNE 19:31:21 52° E 19:34:59 10° S
OAO 3 Rocket 4.5 19:27:20 10° SW 19:31:22 28° S 19:35:27 10° ESE
ALOS 3.4 19:27:52 10° ESE 19:31:37 24° ENE 19:35:21 10° NNE
USA 238 DEB 4.1 19:25:23 10° SW 19:32:25 73° NW 19:39:29 10° NNE
USA 238 4.1 19:25:28 10° SW 19:32:31 73° NW 19:39:35 10° NNE
ATLAS CENTAUR R/B 3.7 19:27:53 10° SSW 19:32:40 55° ESE 19:47:08 10° NE
CZ-4C R/B 2.8 19:30:06 10° SW 19:35:24 61° NW 19:41:25 10° NNE
CZ-4B DEB 4.4 19:33:15 10° ESE 19:35:28 17° ENE 19:37:43 10° NNE
Meteor 2-5 Rocket 4.5 19:30:08 10° NNW 19:35:40 58° W 19:41:05 10° S
Meteor 1-24 Rocket 3.7 19:30:33 10° N 19:36:16 84° E 19:41:43 10° S
Cosmos 1707 3.8 19:34:49 10° NNW 19:38:34 50° W 19:42:18 10° S
Cosmos 2369 Rocket 3.8 19:40:20 10° N 19:44:07 18° NE 19:47:06 13° E
Cosmos 2034 Rocket 4.3 19:39:05 10° SSE 19:44:59 46° E 19:50:58 10° NNE
SAR-Lupe-4 4.2 19:42:27 10° S 19:45:58 58° WSW 19:49:31 10° NNW
Cosmos 1766 Rocket 3.8 19:42:05 10° N 19:46:21 47° ENE 19:50:32 10° SSE
SJ-6B 3.1 19:43:22 10° S 19:47:19 75° WSW 19:51:24 10° NNW
Cosmos 1464 Rocket 4.0 19:41:19 10° S 19:47:28 65° E 19:53:36 10° NNE
Timation 1 Rocket 4.3 19:41:35 10° NNW 19:47:36 76° ENE 19:53:33 10° SSE
Cosmos 1603 4.4 19:44:02 10° SSE 19:48:59 31° ESE 19:53:57 10° NE
FREGAT/IRIS 2.7 19:46:09 10° S 19:49:14 85° WSW 19:52:21 10° NNW
Cosmos 1437 4.1 19:47:12 10° NNW 19:50:19 44° W 19:53:26 10° S
Cosmos 1943 Rocket 4.3 19:50:40 10° NNE 19:51:29 10° NE 19:52:17 10° NE
Cosmos 1758 3.6 19:52:52 10° SSE 19:56:46 45° E 20:00:42 10° NNE
NOSS 3-3 (A) 4.5 19:50:04 10° NW 19:57:32 83° NE 20:05:30 10° SE
NOSS 3-3 (C) 4.5 19:50:10 10° NW 19:57:38 82° NE 20:05:36 10° SE
Cosmos 2333 Rocket 4.0 19:55:27 10° WSW 20:00:40 34° NW 20:05:55 10° N
Spot 2 Rocket 3.4 19:57:22 10° SSE 20:02:25 86° ENE 20:07:29 10° NNW
Cosmos 1076 Rocket 3.5 19:58:57 10° N 20:03:17 89° NE 20:07:38 10° S
NOSS 3-2 (C) 3.4 19:58:20 10° SSW 20:04:22 72° ESE 20:10:59 10° NE
FengYun 1-2 T 4.2 19:59:06 10° SSE 20:04:34 70° ENE 20:10:02 10° N
CENTAUR R/B 3.6 20:00:32 10° SSE 20:04:44 20° ESE 20:05:41 19° E
ASTEX 1 3.9 20:00:26 10° NNE 20:04:58 36° E 20:09:27 10° SSE
Helios 1B rocket 2.3 20:01:27 10° NNE 20:05:34 75° ESE 20:09:40 10° S
Cosmos-2242 3.1 20:04:50 10° S 20:09:06 56° E 20:13:24 10° NNE
Envisat 4.4 20:13:04 19° ENE 20:13:35 19° ENE 20:17:05 10° NNE
In-Cosmos 22 4.3 20:08:12 10° N 20:14:01 90° ENE 20:19:47 10° S
Cosmos 1674 3.4 20:12:50 10° N 20:16:24 34° ENE 20:16:58 32° E
Meteor 1-21 Rocket 4.1 20:13:45 10° N 20:19:20 75° E 20:24:51 10° SSE
Cosmos 1842 Rocket 4.1 20:18:06 25° SE 20:19:46 35° E 20:23:44 10° NNE
Cosmos 1500 Rocket 4.0 20:16:24 10° N 20:20:35 39° ENE 20:21:56 31° ESE
Cosmos 1408 Rocket 3.9 20:16:46 10° NNW 20:21:08 66° W 20:25:23 10° S
Cosmos 2151 4.4 20:21:30 10° NNE 20:24:01 22° NE 20:24:01 22° NE
Cosmos 2237 Rocket 4.4 20:21:57 10° WSW 20:26:40 26° NW 20:31:24 10° N
Cosmos 1346 2.8 20:25:01 10° N 20:28:01 74° E 20:28:07 73° ESE
ATLAS CENTAUR R/B 4.1 20:26:02 10° WNW 20:28:34 16° WSW 20:31:00 10° SSW
Resurs 01 Rocket 2.7 20:28:28 10° S 20:32:44 45° W 20:37:02 10° NNW
ATLAS 5 CENTAUR R/B 1.9 20:29:27 10° SW 20:34:14 82° NW 20:39:29 10° NE
Resurs 1-3 4.2 20:30:00 10° S 20:34:17 56° W 20:38:38 10° NNW
USA 215 3.3 20:31:57 10° NE 20:38:29 78° NW 20:45:01 10° WSW
Meteor 1-29 4.4 20:40:38 10° N 20:43:57 39° WNW 20:47:13 10° SW
CZ-2D R/B 3.4 20:43:00 30° S 20:44:49 74° WSW 20:48:44 10° NNW
SL-16 R/B 3.6 20:40:29 10° SW 20:45:46 38° WNW 20:51:05 10° N
Cosmos 1743 Rocket 3.8 20:44:16 10° NNW 20:48:43 71° W 20:51:26 23° S
Cosmos 1953 3.7 20:47:52 10° SSW 20:51:37 39° WNW 20:55:22 10° N
ERS-1 Rocket 3.2 20:54:54 48° ENE 20:54:54 48° ENE 20:59:39 10° N
Nadezhda 4 Rocket 4.2 20:50:19 10° NNW 20:56:35 69° W 21:02:44 10° S
Cosmos 1655 Rocket 4.2 20:50:37 10° N 20:56:35 46° ENE 20:57:04 45° E
SeaSat 1 2.3 20:53:43 10° NNE 20:58:40 75° ESE 21:03:36 10° SSW
BREEZE-M DEB (TANK) 3.3 20:49:38 10° W 21:01:21 72° N 21:02:28 52° ENE
GP-B 2.9 20:57:01 10° N 21:01:21 78° ENE 21:01:21 78° ENE
Cosmos 1092 Rocket 3.9 20:56:21 10° N 21:02:36 84° W 21:06:37 23° S
H-2A R/B 3.8 21:01:10 29° SSW 21:02:45 45° W 21:06:31 10° NNW
Cosmos 839 Rocket 4.2 20:59:15 10° NNW 21:07:06 68° NE 21:08:43 52° ESE
Cosmos 2142 Rocket 4.4 21:02:43 19° S 21:07:30 73° E 21:13:54 10° NNE
ALOS 3.6 21:04:33 10° SSW 21:08:51 37° W 21:13:12 10° NNW
Cosmos 1634 Rocket 3.9 21:11:43 10° S 21:17:59 88° W 21:24:15 10° N
Cosmos 2026 Rocket 3.8 21:12:09 10° N 21:18:16 74° E 21:18:46 69° ESE
Cosmos 1470 4.1 21:24:31 38° NW 21:24:31 38° NW 21:27:40 10° N
Cosmos 2369 Rocket 2.1 21:23:12 10° NNW 21:28:52 83° WSW 21:28:55 83° WSW
H-2A R/B 4.0 21:31:47 22° N 21:31:47 22° N 21:33:31 10° N
Cosmos 2263 4.3 21:25:29 10° NNW 21:30:46 70° NNE 21:30:46 70° NNE
Cosmos 1943 Rocket 2.9 21:31:08 10° NNW 21:35:15 42° NNE 21:35:15 42° NNE
H-2A R/B 4.4 21:53:25 13° NNE 21:53:25 13° NNE 21:54:11 10° N
Envisat 3.9 21:53:17 47° NW 21:53:17 47° NW 21:57:11 10° NNW
CENTAUR R/B 2.8 21:48:20 10° SW 21:59:44 18° NNE 22:01:24 10° NE
ATLAS 5 CENTAUR R/B 4.4 22:16:22 10° WNW 22:19:51 18° NNW 22:23:31 10° NNE
